PLEIADES 1A

Last updated on Sat Sep 12 2026 00:02:46 GMT+0000 (Coordinated Universal Time)

1 38012U 11076F 26254.65074145 .00000156 00000+0 43297-4 0 9990 2 38012 98.1924 328.5632 0001141 100.3767 57.9124 14.58571591784596
UTC large
Height (km)
Speed (km/s)
/
Latitude / Longitude
Inclination (degrees)
Orbital Period (minutes)
Azimuth
Elevation
Range (km)
Doppler Factor

Next 0 passes for location: London (51.5072 / 0.1276)

No passes found over London.
PLEIADES 1A